Flag for Ukraine Weather past 2 weeks in Kryvyi Rih, Ukraine

Now
54 °F

Fog.


Feels Like: 53 °F
Forecast: 54 / 62 °F
Wind: 3 mph from Northwest

Location: Krivyy Rih / Dnipropetrovs'k


UV Index: 0 (Low)

Visibility: 0 mi


Pressure: 29.86 "Hg

Humidity: 100%

Dew point: 54 °F

Location of Kryvyi RihLocation

Historic Weather in Kryvyi Rih

°F

Kryvyi Rih temperature yesterday

Maximum temperature yesterday: 59 °F (at 12:00 AM)
Minimum temperature yesterday: 54 °F (at 11:00 PM)
Average temperature yesterday: 56 °F

Past Weeks' High & Low Weather Summary

 TemperatureHumidityPressure
High73 °F (Apr 9, 2:00 PM)100% (Apr 10, 8:00 AM)30.39 "Hg (Apr 10, 8:00 AM)
Low27 °F (Apr 6, 3:00 AM)17% (Apr 6, 2:00 PM)29.71 "Hg (Apr 9, 4:00 PM)
Average50 °F72%29.98 "Hg
* Reported Midnight between Apr 5 and Apr 6 — Midnight between Apr 20 and Apr 21, Kryvyi Rih, Weather by CustomWeather, © 2014

Note: Actual official high and low records may vary slightly from our data, if they occured in-between our weather recording intervals... More about our weather records

Advertising

Historic Weather Conditions — Data for Previous 24 hours

 ConditionsComfort  
Time TempWeatherWind HumidityBarometerVisibility
12:00 AM
Apr 21
54 °FFog.No wind100%29.86 "Hg1 mi
11:30 PM
Apr 20
54 °FFog.No wind100%29.86 "Hg0 mi
11:00 PM54 °FFog.1 mph100%29.86 "Hg1 mi
10:30 PM55 °FFog.3 mph100%29.86 "Hg0 mi
10:00 PM55 °FFog.1 mph94%29.86 "Hg1 mi
9:30 PM55 °FFog.3 mph100%29.86 "Hg2 mi
9:00 PM55 °FFog.3 mph100%29.86 "Hg2 mi
8:30 PM57 °FFog.1 mph94%29.86 "Hg2 mi
8:00 PM57 °FFog.6 mph94%29.86 "Hg2 mi
7:30 PM57 °FFog.3 mph94%29.86 "Hg2 mi
7:00 PM57 °FFog.3 mph94%29.86 "Hg2 mi
6:30 PM57 °FFog.6 mph94%29.86 "Hg1 mi
6:00 PM57 °FLight rain. Fog.6 mph94%29.86 "Hg2 mi
5:30 PM57 °FLight rain. Fog.6 mph94%29.86 "Hg1 mi
5:00 PM57 °FLight rain. Fog.6 mph94%29.86 "Hg1 mi
4:30 PM57 °FLight rain. Fog.3 mph94%29.86 "Hg1 mi
4:00 PM57 °FLight rain. Overcast.6 mph94%29.86 "Hg1 mi
3:30 PM57 °FFog.3 mph94%29.86 "HgN/A
3:00 PM57 °FSprinkles. Fog.6 mph94%29.86 "Hg1 mi
2:30 PM57 °FSprinkles. Fog.6 mph100%29.86 "Hg1 mi
2:00 PM57 °FRain showers. Fog.3 mph100%29.86 "Hg1 mi
1:30 PM55 °FFog.3 mph100%29.86 "Hg1 mi
1:00 PM55 °FSprinkles. Fog.6 mph100%29.86 "Hg2 mi
12:30 PM55 °FSprinkles. Fog.3 mph100%29.86 "Hg1 mi
12:00 PM55 °FSprinkles. Fog.6 mph100%29.86 "Hg1 mi
11:30 AM55 °FRain showers. Fog.6 mph100%29.86 "Hg1 mi
11:00 AM55 °FRain showers. Fog.10 mph100%29.86 "Hg1 mi
10:30 AM55 °FSprinkles. Fog.6 mph94%29.86 "Hg2 mi
10:00 AM55 °FLots of rain. Dense fog.6 mph94%29.86 "Hg1 mi
9:30 AM55 °FSprinkles. Fog.3 mph94%29.86 "Hg1 mi
9:00 AM55 °FSprinkles. Fog.3 mph94%29.86 "Hg1 mi
8:30 AM55 °FSprinkles. Fog.3 mph94%29.86 "Hg1 mi
8:00 AM55 °FSprinkles. Fog.8 mph94%29.86 "Hg1 mi
7:30 AM55 °FRain showers. Mostly cloudy.1 mph94%29.86 "Hg1 mi
7:00 AM55 °FSprinkles. Mostly cloudy.1 mph94%29.86 "Hg2 mi
6:30 AM55 °FSprinkles. Mostly cloudy.6 mph94%29.86 "Hg2 mi
6:00 AM55 °FSprinkles. Mostly cloudy.6 mph94%29.86 "Hg2 mi
5:30 AM55 °FSprinkles. Partly cloudy.8 mph88%29.86 "HgN/A
5:00 AM55 °FPartly cloudy.6 mph88%29.86 "HgN/A
4:00 AM55 °FMostly cloudy.8 mph88%29.83 "HgN/A
3:30 AM57 °FMostly cloudy.8 mph88%29.86 "HgN/A
3:00 AM57 °FMostly cloudy.10 mph88%29.86 "HgN/A
2:30 AM57 °FMostly cloudy.8 mph88%29.86 "HgN/A
2:00 AM57 °FSprinkles. Mostly cloudy.10 mph88%29.89 "HgN/A
1:30 AM59 °FMostly cloudy.8 mph82%29.89 "HgN/A
1:00 AM59 °FMostly cloudy.8 mph82%29.89 "HgN/A
Weather by CustomWeather, © 2014

See weather overview